sat.trackr.live / text

‹ back to catalog

STARLINK-32275

NORAD 60360 · 2024-138F

PAYLOAD ACTIVE UNKNOWN

§ Identity

Operator
Country
US
Launch date
2024-08-04
Launch site
AFWTR
Launch vehicle
Mass (kg)
RCS (m²)

Purposes: comms

External: N2YO · Heavens-Above · Gunter

§ Orbital elements

Epoch: 2026-05-25T04:29:16.393920Z

Period
94.01 min
Inclination
53.1595°
Eccentricity
0.0001254
Mean motion
15.31702508 rev/d
Perigee alt
469.9 km
Apogee alt
471.6 km
Semi-major
6,848.9 km
B*
3.8349e-5
RAAN
314.0014°
Arg perigee
95.1909°
Mean anomaly
264.9236°
Rev number
10,234

§ Raw data

STARLINK-322751 60360U 24138F   26145.18699530  .00000825  00000+0  38349-4 0  99972 60360  53.1595 314.0014 0001254  95.1909 264.9236 15.31702508102347

JSON: /api/v1/satellites/60360 · /tle

For live sub-satellite position, see the globe view (requires WebGL).

§ Visibility from observer

Set your observer location to see the next 7 days of passes ≥ 10°. The values pass through the URL so the page stays shareable.

No JS? Fill the form by hand. The geolocation button needs JavaScript.